Simultaneous Nadir Overpasses (SNOs) Predictions

Prediction of SNOs between GOES-16 and LANDSAT-8 Satellite Orbit:

Table of predicted SNOs for the next 14.0 days since TLE Epoch: 10/5/2019
Index Date Time (GOES-16) GOES-16 Lat,Lon LANDSAT-8 Lat,Lon Distance(km) Time Diff (sec)
1 10/05/2019 02:58:56 0.01, -75.20 0.73, -71.71 395.33 11
2 10/05/2019 15:19:03 -0.01, -75.20 0.36, -76.87 190.28 80
3 10/07/2019 15:09:32 -0.01, -75.21 -0.27, -73.92 147.18 80
4 10/08/2019 03:30:56 0.01, -75.21 -0.85, -79.11 443.15 80
5 10/09/2019 14:54:41 -0.01, -75.23 -0.90, -70.96 485.32 80
6 10/10/2019 03:18:45 0.01, -75.23 -0.22, -76.15 104.87 80
7 10/12/2019 03:03:55 0.01, -75.26 0.47, -73.21 234.20 80
8 10/12/2019 15:27:50 -0.01, -75.27 0.67, -78.35 350.91 80
9 10/14/2019 15:15:39 -0.01, -75.30 0.04, -75.40 11.62 80
10 10/16/2019 15:03:29 -0.02, -75.34 -0.66, -72.45 328.65 80
11 10/17/2019 03:24:53 0.02, -75.34 -0.45, -77.64 261.03 80




NCC Satellite Simultaneous Nadir Overpasses (SNOs) Prediction Service
